Cloquet, MN

1:32 PM CDT on March 23, 2017 (GMT -0500)
Cloquet Carlton County

Weather History for KCOQ - January, 2013

Change the Weather History Date:

Monday, January 7, 2013

  Actual Average Record
Temperature  
Mean Temperature 26 °F -  
Max Temperature 39 °F 18 °F 46 °F (2003)
Min Temperature 14 °F 4 °F -23 °F (2014)
Degree Days  
Heating Degree Days 38    
Moisture  
Dew Point 16 °F    
Average Humidity 65    
Maximum Humidity 80    
Minimum Humidity 45    
Precipitation  
Precipitation 0.00 in - - ()
Sea Level Pressure  
Sea Level Pressure 29.78 in    
Wind  
Wind Speed 11 mph (SW)    
Max Wind Speed 18 mph    
Max Gust Speed 29 mph    
Visibility 10 miles    
Events      
Averages and records for this station are not official NWS values.
T = Trace of Precipitation, MM = Missing Value Source: NWS Daily Summary

Daily Weather History Graph

Daily Weather History Graph

Search for Another Location

Airport or City:

Trip Planner

Search our weather history database for the weather conditions in past years. The results will help you decide how hot, cold, wet, or windy it might be!

Date:

Astronomy

Jan. 07, 2013 Rise Set
Actual Time 7:53 AM CST 4:39 PM CST
Civil Twilight 7:19 AM CST 5:14 PM CST
Nautical Twilight 6:41 AM CST 5:52 PM CST
Astronomical Twilight 6:04 AM CST 6:28 PM CST
Moon 3:13 AM CST (1/7) 12:53 PM CST (1/7)
Length of Visible Light 9h 54m
Length of Day
8h 45m
Waning Crescent, 22% of the Moon is Illuminated
Jan 7
Waning Crescent
Jan 11
New
Jan 18
First Quarter
Jan 26
Full
Feb 3
Last Quarter

Hourly Weather History & Observations

Time (CST) Temp. Windchill Dew Point Humidity Pressure Visibility Wind Dir Wind Speed Gust Speed Precip Events Conditions
12:16 AM 14.0 °F 3.9 °F 6.8 °F 73% 29.91 in 10.0 mi South 6.9 mph - N/A   Clear
12:36 AM 14.0 °F 5.1 °F 6.8 °F 73% 29.90 in 10.0 mi South 5.8 mph - N/A   Clear
12:56 AM 14.0 °F 3.9 °F 6.8 °F 73% 29.89 in 10.0 mi South 6.9 mph - N/A   Clear
1:16 AM 15.8 °F 5.1 °F 8.6 °F 73% 29.86 in 10.0 mi SSE 8.1 mph - N/A   Clear
1:36 AM 15.8 °F 5.1 °F 8.6 °F 73% 29.84 in 10.0 mi SSE 8.1 mph - N/A   Clear
1:56 AM 15.8 °F 3.4 °F 10.4 °F 79% 29.81 in 10.0 mi South 10.4 mph 16.1 mph N/A   Clear
2:16 AM 15.8 °F 5.1 °F 10.4 °F 79% 29.81 in 10.0 mi South 8.1 mph - N/A   Clear
2:36 AM 15.8 °F 4.2 °F 10.4 °F 79% 29.81 in 10.0 mi South 9.2 mph - N/A   Clear
2:56 AM 17.6 °F 4.3 °F 10.4 °F 73% 29.79 in 10.0 mi South 12.7 mph 16.1 mph N/A   Clear
3:16 AM 17.6 °F 3.2 °F 10.4 °F 73% 29.78 in 10.0 mi South 15.0 mph - N/A   Clear
3:36 AM 17.6 °F 4.3 °F 12.2 °F 79% 29.77 in 10.0 mi SSW 12.7 mph 20.7 mph N/A   Clear
3:56 AM 17.6 °F 5.7 °F 12.2 °F 79% 29.76 in 10.0 mi SSW 10.4 mph 16.1 mph N/A   Clear
4:16 AM 19.4 °F 6.6 °F 12.2 °F 74% 29.75 in 10.0 mi SSW 12.7 mph 18.4 mph N/A   Clear
4:36 AM 19.4 °F 6.6 °F 12.2 °F 74% 29.75 in 10.0 mi SSW 12.7 mph 19.6 mph N/A   Clear
4:56 AM 19.4 °F 7.9 °F 12.2 °F 74% 29.75 in 10.0 mi SW 10.4 mph - N/A   Clear
5:16 AM 19.4 °F 5.0 °F 12.2 °F 74% 29.75 in 10.0 mi SSW 16.1 mph 20.7 mph N/A   Clear
5:36 AM 19.4 °F 6.0 °F 12.2 °F 74% 29.74 in 10.0 mi SSW 13.8 mph 18.4 mph N/A   Clear
5:56 AM 19.4 °F 5.5 °F 12.2 °F 74% 29.73 in 10.0 mi SSW 15.0 mph 19.6 mph N/A   Clear
6:35 AM 19.4 °F 6.6 °F 14.0 °F 80% 29.73 in 10.0 mi SSW 12.7 mph 18.4 mph N/A   Clear
6:56 AM 19.4 °F 5.0 °F 14.0 °F 80% 29.73 in 10.0 mi SSW 16.1 mph 20.7 mph N/A   Clear
7:16 AM 19.4 °F 5.0 °F 14.0 °F 80% 29.72 in 10.0 mi SSW 16.1 mph 23.0 mph N/A   Clear
7:36 AM 21.2 °F 7.3 °F 15.8 °F 80% 29.71 in 10.0 mi SSW 16.1 mph 25.3 mph N/A   Mostly Cloudy
7:56 AM 21.2 °F 6.8 °F 15.8 °F 80% 29.72 in 10.0 mi SW 17.3 mph 25.3 mph N/A   Overcast
8:16 AM 21.2 °F 8.3 °F 15.8 °F 80% 29.73 in 10.0 mi SW 13.8 mph 20.7 mph N/A   Mostly Cloudy
8:36 AM 23.0 °F 11.7 °F 15.8 °F 74% 29.73 in 10.0 mi SSW 11.5 mph 18.4 mph N/A   Scattered Clouds
9:15 AM 23.0 °F 11.7 °F 15.8 °F 74% 29.74 in 10.0 mi SW 11.5 mph 17.3 mph N/A   Clear
9:36 AM 23.0 °F 11.1 °F 15.8 °F 74% 29.74 in 10.0 mi SSW 12.7 mph - N/A   Clear
9:56 AM 24.8 °F 14.6 °F 17.6 °F 74% 29.75 in 10.0 mi SSW 10.4 mph - N/A   Clear
10:15 AM 26.6 °F 16.2 °F 17.6 °F 69% 29.75 in 10.0 mi SSW 11.5 mph 18.4 mph N/A   Clear
10:36 AM 26.6 °F 16.2 °F 17.6 °F 69% 29.75 in 10.0 mi SW 11.5 mph 18.4 mph N/A   Clear
10:56 AM 28.4 °F 19.7 °F 17.6 °F 64% 29.76 in 10.0 mi SW 9.2 mph 17.3 mph N/A   Clear
11:15 AM 30.2 °F 20.8 °F 17.6 °F 60% 29.75 in 10.0 mi WSW 11.5 mph - N/A   Clear
11:36 AM 30.2 °F 19.3 °F 19.4 °F 64% 29.74 in 10.0 mi SW 15.0 mph 18.4 mph N/A   Clear
11:56 AM 33.8 °F 25.3 °F 19.4 °F 56% 29.73 in 10.0 mi SW 11.5 mph - N/A   Clear
12:16 PM 35.6 °F 27.1 °F 19.4 °F 52% 29.72 in 10.0 mi SW 12.7 mph 19.6 mph N/A   Clear
12:36 PM 35.6 °F 27.5 °F 19.4 °F 52% 29.72 in 10.0 mi WSW 11.5 mph 24.2 mph N/A   Clear
1:16 PM 37.4 °F 28.5 °F 19.4 °F 48% 29.71 in 10.0 mi WSW 15.0 mph 21.9 mph N/A   Clear
1:36 PM 39.2 °F 30.8 °F 19.4 °F 45% 29.71 in 10.0 mi WSW 15.0 mph 21.9 mph N/A   Clear
1:56 PM 39.2 °F 29.8 °F 19.4 °F 45% 29.71 in 10.0 mi West 18.4 mph 27.6 mph N/A   Clear
2:16 PM 39.2 °F 31.2 °F 19.4 °F 45% 29.72 in 10.0 mi WSW 13.8 mph 28.8 mph N/A   Clear
2:36 PM 39.2 °F 32.0 °F 19.4 °F 45% 29.72 in 10.0 mi WSW 11.5 mph 23.0 mph N/A   Clear
2:56 PM 39.2 °F 30.8 °F 19.4 °F 45% 29.73 in 10.0 mi WSW 15.0 mph 21.9 mph N/A   Clear
3:16 PM 37.4 °F 28.5 °F 19.4 °F 48% 29.73 in 10.0 mi WSW 15.0 mph 21.9 mph N/A   Clear
3:36 PM 37.4 °F 28.2 °F 19.4 °F 48% 29.73 in 10.0 mi SW 16.1 mph 21.9 mph N/A   Clear
3:55 PM 37.4 °F 29.8 °F 19.4 °F 48% 29.74 in 10.0 mi SW 11.5 mph 21.9 mph N/A   Clear
4:16 PM 37.4 °F 28.2 °F 19.4 °F 48% 29.75 in 10.0 mi SW 16.1 mph 21.9 mph N/A   Clear
4:36 PM 37.4 °F 28.9 °F 19.4 °F 48% 29.76 in 10.0 mi SW 13.8 mph - N/A   Clear
5:16 PM 35.6 °F 28.0 °F 19.4 °F 52% 29.77 in 10.0 mi WSW 10.4 mph - N/A   Clear
5:36 PM 35.6 °F 28.0 °F 19.4 °F 52% 29.78 in 10.0 mi SW 10.4 mph 16.1 mph N/A   Clear
5:56 PM 35.6 °F 28.0 °F 19.4 °F 52% 29.79 in 10.0 mi SW 10.4 mph - N/A   Clear
6:16 PM 33.8 °F 24.8 °F 19.4 °F 56% 29.79 in 10.0 mi SW 12.7 mph - N/A   Clear
6:36 PM 33.8 °F 26.4 °F 19.4 °F 56% 29.80 in 10.0 mi WSW 9.2 mph - N/A   Clear
6:56 PM 33.8 °F 25.3 °F 19.4 °F 56% 29.81 in 10.0 mi WSW 11.5 mph 17.3 mph N/A   Clear
7:16 PM 33.8 °F 24.8 °F 19.4 °F 56% 29.81 in 10.0 mi WSW 12.7 mph - N/A   Clear
7:36 PM 32.0 °F 24.8 °F 19.4 °F 60% 29.81 in 10.0 mi WSW 8.1 mph - N/A   Clear
7:56 PM 32.0 °F 24.2 °F 19.4 °F 60% 29.81 in 10.0 mi WSW 9.2 mph - N/A   Clear
8:16 PM 30.2 °F 21.9 °F 19.4 °F 64% 29.82 in 10.0 mi WSW 9.2 mph - N/A   Clear
8:36 PM 30.2 °F 21.9 °F 19.4 °F 64% 29.83 in 10.0 mi WSW 9.2 mph - N/A   Clear
8:56 PM 30.2 °F 24.3 °F 19.4 °F 64% 29.84 in 10.0 mi WSW 5.8 mph - N/A   Clear
9:36 PM 28.4 °F 23.3 °F 19.4 °F 69% 29.85 in 10.0 mi WSW 4.6 mph - N/A   Clear
9:56 PM 28.4 °F 23.3 °F 19.4 °F 69% 29.86 in 10.0 mi WSW 4.6 mph - N/A   Clear
10:16 PM 28.4 °F 22.2 °F 19.4 °F 69% 29.87 in 10.0 mi WSW 5.8 mph - N/A   Clear
10:36 PM 26.6 °F 20.0 °F 19.4 °F 74% 29.87 in 10.0 mi WSW 5.8 mph - N/A   Clear
10:56 PM 26.6 °F 20.0 °F 19.4 °F 74% 29.87 in 10.0 mi WSW 5.8 mph - N/A   Clear
11:16 PM 26.6 °F 19.1 °F 17.6 °F 69% 29.87 in 10.0 mi WSW 6.9 mph - N/A   Clear
11:36 PM 26.6 °F 18.2 °F 17.6 °F 69% 29.88 in 10.0 mi SW 8.1 mph - N/A   Clear
11:56 PM 24.8 °F 17.9 °F 17.6 °F 74% 29.88 in 10.0 mi WSW 5.8 mph - N/A   Clear